Location: Newark
(50.0306°N, 2.3272°E)
Time: 05:36:36
(UTC+00:00)

Vanguard 1 Rocket - Pass Details

Date: 14 December 2019
Orbit: 651 x 4226 km, 34.3° (Epoch: 28 January)

Event Time Altitude Azimuth Distance (km) Brightness Sun altitude
Rises 18:48:31 0° 220° (SW) 8,385 12.9 -27.6°
Reaches altitude 10° 18:55:41 10° 212° (SSW) 7,104 12.3 -28.7°
Maximum altitude 19:13:28 32° 161° (SSE) 4,254 10.5 -31.6°
Enters shadow 19:17:16 29° 140° (SE) 4,042 10.3 -32.2°
Drops below altitude 10° 19:24:46 10° 105° (ESE) 4,536 - -33.4°
Sets 19:28:04 0° 95° (E) 5,111 - -33.9°
